This is the latest recevied weather packets stored in our database for station/object KC3VCX. If no packets are shown the sender has not sent any weather packets the latest 10 day(s).
| Time | Temp. | Humidity | Pressure | Rain* | Wind** | Luminosity | Snow |
|---|---|---|---|---|---|---|---|
| 1777415414 | 20° C | 72% | 1015.7 hPa | 0 mm | - | 93 W/m² | - |
| 1777415113 | 19.44° C | 73% | 1015.5 hPa | 0 mm | - | 128 W/m² | - |
| 1777414809 | 20° C | 72% | 1015.7 hPa | 0 mm | - | 215 W/m² | - |
| 1777414504 | 19.44° C | 71% | 1015.5 hPa | 0 mm | - | 230 W/m² | - |
| 1777414203 | 20° C | 72% | 1015.5 hPa | 0 mm | - | 171 W/m² | - |
| 1777413898 | 20° C | 72% | 1015.5 hPa | 0 mm | - | 206 W/m² | - |
| 1777413594 | 19.44° C | 72% | 1015.5 hPa | 0 mm | - | 370 W/m² | - |
| 1777413291 | 19.44° C | 73% | 1015.6 hPa | 0 mm | - | 125 W/m² | - |
| 1777412986 | 19.44° C | 73% | 1015.5 hPa | 0 mm | - | 201 W/m² | - |
| 1777412685 | 19.44° C | 72% | 1015.4 hPa | 0 mm | - | 205 W/m² | - |
| 1777412383 | 19.44° C | 73% | 1015.6 hPa | 0 mm | - | 357 W/m² | - |
| 1777412078 | 18.89° C | 74% | 1015.4 hPa | 0 mm | - | 441 W/m² | - |
| 1777411773 | 18.89° C | 73% | 1015.4 hPa | 0 mm | - | 124 W/m² | - |
| 1777411468 | 18.89° C | 73% | 1015.6 hPa | 0 mm | - | 153 W/m² | - |
| 1777411167 | 19.44° C | 71% | 1015.5 hPa | 0 mm | - | 180 W/m² | - |
| 1777410862 | 18.89° C | 73% | 1015.5 hPa | 0 mm | - | 425 W/m² | - |
| 1777410561 | 19.44° C | 73% | 1015.6 hPa | 0 mm | - | 305 W/m² | - |
| 1777410261 | 19.44° C | 73% | 1015.5 hPa | 0 mm | - | 224 W/m² | - |
| 1777409956 | 18.89° C | 74% | 1015.7 hPa | 0 mm | - | 364 W/m² | - |
| 1777409651 | 18.89° C | 74% | 1015.7 hPa | 0 mm | - | 140 W/m² | - |
| 1777409347 | 18.89° C | 74% | 1015.6 hPa | 0 mm | - | 142 W/m² | - |
| 1777409042 | 18.89° C | 73% | 1015.8 hPa | 0 mm | - | 355 W/m² | - |
| 1777408739 | 18.89° C | 73% | 1015.8 hPa | 0 mm | - | 228 W/m² | - |
| 1777408435 | 18.33° C | 74% | 1015.7 hPa | 0 mm | - | 317 W/m² | - |
| 1777408130 | 18.89° C | 74% | 1015.8 hPa | 0 mm | - | 183 W/m² | - |
* Rain latest hour (hover to see other rain measurements)
** Current wind speed in m/s (hover to see current wind gust speed)